Valley City, ND

11:13 PM CST on December 13, 2019 (GMT -0600)
Valley City

Weather History for KBAC - October, 2019

Change the Weather History Date:

Wednesday, October 2, 2019

  Actual Average (KJMS) Record (KJMS)
Temperature  
Mean Temperature 39 °F 50 °F  
Max Temperature 41 °F 63 °F 88 °F (1914)
Min Temperature 37 °F 38 °F 18 °F (1936)
Degree Days  
Heating Degree Days 26 15  
Month to date heating degree days 29  
Since 1 July heating degree days 347  
Cooling Degree Days 0 0  
Month to date cooling degree days 0  
Year to date cooling degree days 445  
Moisture  
Dew Point 39 °F    
Average Humidity 99    
Maximum Humidity 100    
Minimum Humidity 93    
Precipitation  
Precipitation 0.00 in 0.06 in 0.81 in (1994)
Month to date precipitation 0.12  
Year to date precipitation 16.31  
Sea Level Pressure  
Sea Level Pressure 30.19 in    
Wind  
Wind Speed 11 mph (NE)    
Max Wind Speed 17 mph    
Max Gust Speed 23 mph    
Visibility 8 miles    
Events Rain    
T = Trace of Precipitation, MM = Missing Value Source: NWS Daily Summary

Daily Weather History Graph

Daily Weather History Graph

Search for Another Location

Airport or City:

Astronomy

Oct. 02, 2019 Rise Set
Actual Time 7:31 AM CDT 7:10 PM CDT
Civil Twilight 7:01 AM CDT 7:40 PM CDT
Nautical Twilight 6:26 AM CDT 8:15 PM CDT
Astronomical Twilight 5:50 AM CDT 8:51 PM CDT
Moon 12:14 PM CDT (10/2) 9:48 PM CDT (10/2)
Length of Visible Light 12h 38m
Length of Day
11h 38m
Waxing Crescent, 20% of the Moon is Illuminated
Oct 2
Waxing Crescent
Oct 5
First Quarter
Oct 13
Full
Oct 21
Last Quarter
Oct 27
New

Hourly Weather History & Observations

Time (CDT) Temp. Windchill Dew Point Humidity Pressure Visibility Wind Dir Wind Speed Gust Speed Precip Events Conditions
12:15 AM 39.2 °F 32.0 °F 39.2 °F 100% 30.22 in 10.0 mi NNE 11.5 mph 20.7 mph N/A   Overcast
12:35 AM 39.2 °F 32.0 °F 39.2 °F 100% 30.22 in 10.0 mi NE 11.5 mph - N/A   Overcast
12:55 AM 39.2 °F 31.6 °F 37.4 °F 93% 30.22 in 10.0 mi NNE 12.7 mph - N/A   Overcast
1:15 AM 39.2 °F 30.8 °F 37.4 °F 93% 30.21 in 10.0 mi NNE 15.0 mph - N/A   Overcast
1:55 AM 39.2 °F 32.0 °F 37.4 °F 93% 30.21 in 10.0 mi NNE 11.5 mph 19.6 mph N/A   Overcast
2:15 AM 39.2 °F 31.6 °F 37.4 °F 93% 30.22 in 10.0 mi NNE 12.7 mph 18.4 mph N/A   Overcast
2:35 AM 39.2 °F 33.0 °F 37.4 °F 93% 30.22 in 10.0 mi NNE 9.2 mph 16.1 mph N/A   Overcast
2:55 AM 39.2 °F 33.0 °F 37.4 °F 93% 30.23 in 10.0 mi NNE 9.2 mph - N/A   Overcast
3:15 AM 39.2 °F 31.6 °F 37.4 °F 93% 30.22 in 10.0 mi NNE 12.7 mph - N/A   Overcast
3:35 AM 39.2 °F 32.5 °F 37.4 °F 93% 30.23 in 10.0 mi NNE 10.4 mph - N/A   Overcast
3:55 AM 39.2 °F 33.0 °F 37.4 °F 93% 30.24 in 10.0 mi NNE 9.2 mph - N/A   Overcast
4:15 AM 39.2 °F 32.5 °F 37.4 °F 93% 30.24 in 10.0 mi NNE 10.4 mph - N/A   Overcast
4:35 AM 39.2 °F 31.6 °F 37.4 °F 93% 30.24 in 10.0 mi NNE 12.7 mph - N/A   Overcast
4:55 AM 39.2 °F 31.6 °F 37.4 °F 93% 30.24 in 10.0 mi NE 12.7 mph - N/A   Overcast
5:15 AM 37.4 °F 28.5 °F 37.4 °F 100% 30.23 in 10.0 mi NE 15.0 mph - N/A   Overcast
5:35 AM 37.4 °F 28.5 °F 37.4 °F 100% 30.23 in 10.0 mi NE 15.0 mph - N/A   Overcast
5:55 AM 37.4 °F 27.8 °F 37.4 °F 100% 30.20 in 10.0 mi NNE 17.3 mph 23.0 mph N/A   Overcast
6:15 AM 37.4 °F 29.8 °F 37.4 °F 100% 30.23 in 10.0 mi NE 11.5 mph - N/A   Overcast
6:35 AM 37.4 °F 30.3 °F 37.4 °F 100% 30.22 in 10.0 mi NE 10.4 mph - N/A   Overcast
6:55 AM 37.4 °F 29.8 °F 37.4 °F 100% 30.22 in 10.0 mi NNE 11.5 mph - N/A   Overcast
7:15 AM 37.4 °F 30.8 °F 37.4 °F 100% 30.23 in 10.0 mi NNE 9.2 mph 16.1 mph N/A   Overcast
7:35 AM 37.4 °F 30.8 °F 37.4 °F 100% 30.24 in 10.0 mi North 9.2 mph 17.3 mph N/A   Overcast
7:55 AM 37.4 °F 30.8 °F 37.4 °F 100% 30.23 in 10.0 mi NNE 9.2 mph - N/A   Overcast
8:15 AM 37.4 °F 29.8 °F 37.4 °F 100% 30.22 in 10.0 mi NNE 11.5 mph - N/A   Overcast
8:35 AM 37.4 °F 30.3 °F 37.4 °F 100% 30.22 in 10.0 mi NNE 10.4 mph - N/A   Overcast
8:55 AM 39.2 °F 31.6 °F 39.2 °F 100% 30.21 in 10.0 mi NNE 12.7 mph - N/A   Overcast
9:15 AM 39.2 °F 32.5 °F 39.2 °F 100% 30.22 in 10.0 mi NNE 10.4 mph 16.1 mph N/A   Overcast
9:35 AM 39.2 °F 32.5 °F 39.2 °F 100% 30.23 in 10.0 mi NNE 10.4 mph - N/A   Overcast
9:55 AM 39.2 °F 34.2 °F 39.2 °F 100% 30.23 in 10.0 mi NE 6.9 mph 13.8 mph N/A   Overcast
10:15 AM 39.2 °F 32.5 °F 39.2 °F 100% 30.23 in 10.0 mi NNE 10.4 mph - N/A   Overcast
10:35 AM 39.2 °F 32.5 °F 39.2 °F 100% 30.23 in 10.0 mi NE 10.4 mph - N/A   Overcast
10:55 AM 39.2 °F 31.2 °F 39.2 °F 100% 30.22 in 3.0 mi NE 13.8 mph - N/A   Overcast
11:15 AM 39.2 °F 32.5 °F 39.2 °F 100% 30.22 in 2.5 mi NE 10.4 mph - N/A   Mostly Cloudy
11:35 AM 39.2 °F 33.0 °F 39.2 °F 100% 30.22 in 4.0 mi NE 9.2 mph - N/A   Scattered Clouds
11:55 AM 39.2 °F 31.6 °F 39.2 °F 100% 30.21 in 5.0 mi NE 12.7 mph - N/A   Mostly Cloudy
12:15 PM 39.2 °F 33.0 °F 39.2 °F 100% 30.20 in 3.0 mi NE 9.2 mph 16.1 mph N/A   Light Drizzle
12:35 PM 39.2 °F 32.5 °F 39.2 °F 100% 30.20 in 10.0 mi NE 10.4 mph - N/A   Overcast
12:55 PM 41.0 °F 34.3 °F 41.0 °F 100% 30.20 in 10.0 mi NE 11.5 mph - N/A   Overcast
1:15 PM 41.0 °F 34.7 °F 41.0 °F 100% 30.19 in 10.0 mi ENE 10.4 mph 18.4 mph N/A   Light Drizzle
1:35 PM 41.0 °F 33.9 °F 41.0 °F 100% 30.18 in 10.0 mi NE 12.7 mph - N/A   Overcast
1:55 PM 41.0 °F 33.9 °F 41.0 °F 100% 30.17 in 10.0 mi NE 12.7 mph - N/A   Light Drizzle
2:15 PM 41.0 °F 33.9 °F 41.0 °F 100% 30.19 in 10.0 mi NE 12.7 mph - N/A   Overcast
2:35 PM 41.0 °F 35.2 °F 41.0 °F 100% 30.18 in 10.0 mi NE 9.2 mph - N/A   Overcast
2:55 PM 41.0 °F 35.8 °F 41.0 °F 100% 30.17 in 10.0 mi NE 8.1 mph 19.6 mph N/A   Overcast
3:15 PM 41.0 °F 35.2 °F 41.0 °F 100% 30.17 in 10.0 mi ENE 9.2 mph - N/A   Overcast
3:35 PM 41.0 °F 33.5 °F 41.0 °F 100% 30.14 in 9.0 mi NNE 13.8 mph - N/A   Light Drizzle
3:55 PM 41.0 °F 34.3 °F 41.0 °F 100% 30.14 in 4.0 mi NNE 11.5 mph - N/A Rain Light Rain
4:35 PM 41.0 °F 38.0 °F 41.0 °F 100% 30.16 in 8.0 mi NNE 4.6 mph - N/A   Light Drizzle
4:55 PM 39.2 °F 33.6 °F 39.2 °F 100% 30.14 in 7.0 mi NE 8.1 mph - N/A Rain Light Rain
5:15 PM 39.2 °F 33.0 °F 39.2 °F 100% 30.13 in 8.0 mi NNE 9.2 mph - N/A   Light Drizzle
5:35 PM 39.2 °F 33.6 °F 39.2 °F 100% 30.16 in 2.5 mi NE 8.1 mph - N/A Rain Light Rain
5:55 PM 39.2 °F 33.0 °F 39.2 °F 100% 30.15 in 4.0 mi NNE 9.2 mph - N/A   Light Drizzle
6:15 PM 39.2 °F 33.0 °F 39.2 °F 100% 30.15 in 7.0 mi NNE 9.2 mph - N/A Rain Light Rain
6:35 PM 39.2 °F 32.0 °F 39.2 °F 100% 30.14 in 8.0 mi NNE 11.5 mph - N/A Rain Light Rain
6:55 PM 39.2 °F 32.5 °F 39.2 °F 100% 30.14 in 5.0 mi NNE 10.4 mph - N/A Rain Light Rain
7:15 PM 39.2 °F 33.6 °F 39.2 °F 100% 30.15 in 10.0 mi NNE 8.1 mph - N/A   Light Drizzle
7:35 PM 39.2 °F 33.0 °F 39.2 °F 100% 30.15 in 6.0 mi NNE 9.2 mph - N/A Rain Light Rain
7:55 PM 39.2 °F 33.6 °F 39.2 °F 100% 30.16 in 5.0 mi NNE 8.1 mph - N/A Rain Light Rain
8:15 PM 39.2 °F 32.5 °F 39.2 °F 100% 30.15 in 5.0 mi NNE 10.4 mph - N/A Rain Rain
8:35 PM 39.2 °F 32.0 °F 39.2 °F 100% 30.15 in 6.0 mi NNE 11.5 mph - N/A Rain Light Rain
8:55 PM 39.2 °F 33.0 °F 39.2 °F 100% 30.15 in 7.0 mi NE 9.2 mph 16.1 mph N/A Rain Light Rain
9:15 PM 39.2 °F 33.6 °F 39.2 °F 100% 30.15 in 5.0 mi NE 8.1 mph - N/A Rain Light Rain
9:35 PM 39.2 °F 33.6 °F 39.2 °F 100% 30.15 in 7.0 mi NE 8.1 mph - N/A Rain Light Rain
9:55 PM 37.4 °F 32.1 °F 37.4 °F 100% 30.15 in 6.0 mi NE 6.9 mph - N/A Rain Light Rain
10:15 PM - - - N/A% 30.15 in 6.0 mi NE 6.9 mph - N/A Rain Light Rain
10:35 PM 39.2 °F 33.6 °F 39.2 °F 100% 30.15 in 9.0 mi ENE 8.1 mph - N/A   Light Drizzle
10:55 PM 37.4 °F 32.1 °F 37.4 °F 100% 30.14 in 9.0 mi ENE 6.9 mph - N/A Rain Light Rain
11:15 PM 37.4 °F 32.1 °F 37.4 °F 100% 30.14 in 7.0 mi NNE 6.9 mph - N/A Rain Light Rain
11:35 PM 37.4 °F 32.1 °F 37.4 °F 100% 30.15 in 10.0 mi North 6.9 mph - N/A   Light Drizzle
11:55 PM 37.4 °F 32.1 °F 37.4 °F 100% 30.15 in 4.0 mi North 6.9 mph - N/A Rain Light Rain